Location: Unspecified
(0.0000°N, 0.0000°E)
Time: 12:16:28
(UTC+00:00)

Courier 1B Rocket - All Passes

Search period start: 25 September 2016 00:00
Search period end: 05 October 2016 00:00
Orbit: 920 x 1202 km, 28.2° (Epoch: 24 September)

Date Brightness Start Highest point End Pass type
(mag) Time Alt. Az. Time Alt. Az. Time Alt. Az.
25 Sep - 01:34:45 10° W 01:40:31 38° NNW 01:46:15 10° NE night (unlit)
25 Sep - 03:33:22 10° NNW 03:34:34 11° NNW 03:35:46 10° N visible
25 Sep - 09:17:30 10° N 09:21:34 16° NNE 09:25:47 10° ENE daylight
25 Sep - 11:08:37 10° NW 11:15:48 49° NNE 11:23:17 10° ESE daylight
25 Sep - 13:02:12 10° WNW 13:09:42 54° SSW 13:17:20 10° SE daylight
25 Sep - 14:59:01 10° WSW 15:04:05 18° SSW 15:09:07 10° SSE daylight
25 Sep - 20:49:40 10° S 20:51:43 11° SSE 20:53:43 10° SE visible
25 Sep - 22:40:01 10° SW 22:46:04 36° SSE 22:51:48 10° E night (unlit)
26 Sep - 00:33:14 10° WSW 00:39:31 59° NNW 00:45:39 10° NE night (unlit)
26 Sep - 02:29:34 10° WNW 02:33:14 16° NNW 02:36:55 10° NNE visible
26 Sep - 08:19:26 10° NNE 08:20:00 10° NNE 08:20:34 10° NNE daylight
26 Sep - 10:08:03 10° NNW 10:14:29 33° NNE 10:21:15 10° E daylight
26 Sep - 12:00:48 10° WNW 12:08:21 78° SSW 12:16:14 10° SE daylight
26 Sep - 13:56:17 10° W 14:02:31 26° SSW 14:08:47 10° SSE daylight
26 Sep - 21:39:25 10° SSW 21:44:53 25° SSE 21:50:03 10° E night (unlit)
26 Sep - 23:31:57 10° WSW 23:38:34 88° SSE 23:44:51 10° ENE night (unlit)
27 Sep - 01:27:04 10° W 01:32:03 24° NNW 01:36:58 10° NNE night (unlit)
27 Sep - 09:07:48 10° NNW 09:13:10 23° NNE 09:18:46 10° ENE daylight
27 Sep - 10:59:43 10° NW 11:07:05 74° NNE 11:14:51 10° ESE daylight
27 Sep - 12:54:08 10° W 13:01:03 36° SSW 13:08:08 10° SE daylight
27 Sep - 14:52:37 10° SW 14:55:49 13° SSW 14:59:00 10° S daylight
27 Sep - 20:39:02 10° SSW 20:43:31 18° SSE 20:47:49 10° ESE visible
27 Sep - 22:30:54 10° SW 22:37:33 58° SSE 22:43:48 10° ENE night (unlit)
28 Sep - 00:25:05 10° W 00:30:59 37° NNW 00:36:41 10° NE night (unlit)
28 Sep - 08:08:03 10° N 08:11:46 15° NNE 08:15:36 10° ENE daylight
28 Sep - 09:58:57 10° NW 10:05:50 50° NNE 10:13:10 10° ESE daylight
28 Sep - 11:52:26 10° WNW 11:59:39 52° SSW 12:07:15 10° SE daylight
28 Sep - 13:49:09 10° WSW 13:54:07 18° SSW 13:59:07 10° SSE daylight
28 Sep - 19:39:02 10° S 19:42:00 13° SSE 19:44:54 10° SE visible
28 Sep - 21:30:01 10° SW 21:36:26 38° SSE 21:42:27 10° E visible
28 Sep - 23:23:26 10° WSW 23:29:59 58° NNW 23:36:11 10° NE night (unlit)
29 Sep - 01:20:03 10° WNW 01:23:41 16° NNW 01:27:16 10° N night (unlit)
29 Sep - 08:58:28 10° NNW 09:04:37 33° NNE 09:11:09 10° E daylight
29 Sep - 10:51:06 10° WNW 10:58:22 76° SSW 11:06:06 10° SE daylight
29 Sep - 12:46:31 10° WSW 12:52:31 25° SSW 12:58:42 10° SSE daylight
29 Sep - 20:29:17 10° SSW 20:35:11 27° SSE 20:40:45 10° E visible
29 Sep - 22:22:03 10° WSW 22:28:58 89° NNW 22:35:25 10° ENE night (unlit)
30 Sep - 00:17:23 10° W 00:22:30 24° NNW 00:27:27 10° NNE night (unlit)
30 Sep - 07:58:19 10° NNW 08:03:22 22° NNE 08:08:39 10° ENE daylight
30 Sep - 09:50:06 10° NW 09:57:09 75° NNE 10:04:43 10° ESE daylight
30 Sep - 11:44:26 10° W 11:51:03 35° SSW 11:58:00 10° SE daylight
30 Sep - 13:42:53 10° SW 13:45:52 12° SSW 13:48:53 10° S daylight
30 Sep - 19:28:45 10° SSW 19:33:46 19° SSE 19:38:34 10° ESE visible
30 Sep - 21:20:53 10° SW 21:27:54 61° SSE 21:34:24 10° ENE visible
30 Sep - 23:15:16 10° W 23:21:24 37° NNW 23:27:14 10° NE night (unlit)
01 Oct - 06:58:42 10° N 07:02:03 14° NNE 07:05:30 10° NE daylight
01 Oct - 08:49:24 10° NW 08:55:59 49° NNE 09:03:03 10° ESE daylight
01 Oct - 10:42:49 10° WNW 10:49:42 50° SSW 10:57:05 10° SE daylight
01 Oct - 12:39:29 10° WSW 12:44:09 17° SSW 12:48:56 10° SSE daylight
01 Oct - 18:28:31 10° S 18:32:11 14° SSE 18:35:46 10° SE visible
01 Oct - 20:19:53 10° SW 20:26:43 41° SSE 20:33:04 10° E visible
01 Oct - 22:13:30 10° WSW 22:20:21 58° NNW 22:26:45 10° NE night (unlit)
02 Oct - 00:10:19 10° WNW 00:14:06 16° NNW 00:17:47 10° N night (unlit)
02 Oct - 07:48:59 10° NNW 07:54:50 32° NNE 08:01:04 10° E daylight
02 Oct - 09:41:33 10° WNW 09:48:28 74° SSW 09:55:57 10° SE daylight
02 Oct - 11:36:55 10° WSW 11:42:35 24° SSW 11:48:29 10° SSE daylight
02 Oct - 17:29:31 10° S 17:30:27 10° SSE 17:31:22 10° SSE daylight
02 Oct - 19:19:04 10° SSW 19:25:24 29° SSE 19:31:22 10° E visible
02 Oct - 21:12:00 10° WSW 21:19:17 87° NNW 21:26:00 10° ENE visible
02 Oct - 23:07:32 10° W 23:12:53 24° NNW 23:18:00 10° NNE night (unlit)
03 Oct - 06:48:54 10° NNW 06:53:40 21° NNE 06:58:38 10° ENE daylight
03 Oct - 08:40:37 10° NW 08:47:19 76° NNE 08:54:35 10° ESE daylight
03 Oct - 10:34:54 10° W 10:41:09 33° SSW 10:47:47 10° SE daylight
03 Oct - 12:33:29 10° SW 12:35:58 12° SSW 12:38:27 10° S daylight
03 Oct - 18:18:27 10° SSW 18:23:56 21° SSE 18:29:11 10° ESE visible
03 Oct - 20:10:45 10° SW 20:18:08 64° SSE 20:24:58 10° ENE visible
03 Oct - 22:05:18 10° W 22:11:45 37° NNW 22:17:48 10° NE night (unlit)
04 Oct - 00:05:01 10° NNW 00:05:50 10° NNW 00:06:39 10° NNW night (unlit)
04 Oct - 05:49:20 10° N 05:52:24 14° NNE 05:55:31 10° NE daylight
04 Oct - 07:39:56 10° NW 07:46:14 49° NNE 07:52:59 10° ESE daylight
04 Oct - 09:33:19 10° WNW 09:39:51 48° SSW 09:46:54 10° SE daylight
04 Oct - 11:30:02 10° WSW 11:34:15 16° SSW 11:38:37 10° SSE daylight
04 Oct - 17:18:09 10° SSW 17:22:18 15° SSE 17:26:24 10° SE daylight
04 Oct - 19:09:42 10° SW 19:16:52 43° SSE 19:23:36 10° E visible
04 Oct - 21:03:26 10° WSW 21:10:38 57° NNW 21:17:18 10° NE visible
04 Oct - 23:00:23 10° WNW 23:04:28 16° NNW 23:08:24 10° NNE night (unlit)
